Simultaneous Nadir Overpasses (SNOs) Predictions

Prediction of SNOs between NOAA-19 and NPP Satellite Orbit:

Table of predicted SNOs for the next 14.0 days since TLE Epoch: 12/23/2016
Index Date (NOAA-19) Time (NOAA-19) Lat,Lon (NOAA-19) SZA (NOAA-19 ) Date (NPP) Time (NPP) Lat,Lon (NPP) SZA (NPP ) Distance(km) Time Diff (sec)
1 12/25/2016 15:54:25 -80.92, 69.70 72.46 12/25/2016 15:55:32 -80.93, 69.57 72.47 2.44 67
2 12/25/2016 16:45:22 80.92,-123.21 107.57 12/25/2016 16:46:17 80.93,-123.14 107.54 1.61 55
3 12/25/2016 17:36:27 -80.92, 44.12 72.45 12/25/2016 17:37:02 -80.93, 44.15 72.47 0.97 35
4 12/25/2016 18:27:23 80.93,-148.42 107.53 12/25/2016 18:27:47 80.93,-148.56 107.54 2.42 24
5 12/25/2016 19:18:28 -80.93, 18.92 72.48 12/25/2016 19:18:31 -80.92, 19.09 72.51 3.31 3
6 12/25/2016</
